Time,TemperatureF,DewpointF,PressureIn,WindDirection,WindDirectionDegrees,WindSpeedMPH,WindSpeedGustMPH,Humidity,HourlyPrecipIn,Conditions,Clouds,dailyrainin,SoftwareType,DateUTC
2013-12-28 00:01:00,26.8,23.4,30.41,WNW,283,0.0,0.0,87,0.00,CLR,,0.00,WeatherDisplay:10.37,2013-12-28 05:01:00,
2013-12-28 00:02:00,26.8,23.4,30.41,WNW,283,0.0,0.0,87,0.00,CLR,,0.00,WeatherDisplay:10.37,2013-12-28 05:02:00,
2013-12-28 00:05:00,26.8,23.4,30.41,WNW,283,0.0,0.0,87,0.00,CLR,,0.00,WeatherDisplay:10.37,2013-12-28 05:05:00,
2013-12-28 00:10:00,26.7,23.4,30.41,WNW,283,0.0,0.0,87,0.00,CLR,,0.00,WeatherDisplay:10.37,2013-12-28 05:10:00,
2013-12-28 00:15:00,26.7,23.4,30.41,WNW,283,0.0,0.0,87,0.00,CLR,,0.00,WeatherDisplay:10.37,2013-12-28 05:15:00,
2013-12-28 00:20:00,26.8,23.7,30.41,WNW,283,1.2,0.0,88,0.00,CLR,,0.00,WeatherDisplay:10.37,2013-12-28 05:20:00,
2013-12-28 00:25:00,26.8,23.7,30.40,WNW,283,0.0,0.0,88,0.00,CLR,,0.00,WeatherDisplay:10.37,2013-12-28 05:25:00,
2013-12-28 00:30:00,26.8,23.7,30.40,WNW,283,1.2,0.0,88,0.00,CLR,,0.00,WeatherDisplay:10.37,2013-12-28 05:30:00,
2013-12-28 00:35:00,26.9,23.8,30.40,WNW,283,0.0,0.0,88,0.00,CLR,,0.00,WeatherDisplay:10.37,2013-12-28 05:35:00,
2013-12-28 00:40:00,26.9,23.8,30.40,WNW,283,0.0,0.0,88,0.00,CLR,,0.00,WeatherDisplay:10.37,2013-12-28 05:40:00,
2013-12-28 00:45:00,26.9,23.8,30.40,WNW,283,0.0,0.0,88,0.00,CLR,,0.00,WeatherDisplay:10.37,2013-12-28 05:45:00,
2013-12-28 00:50:00,27.0,23.9,30.40,WNW,283,0.0,0.0,88,0.00,CLR,,0.00,WeatherDisplay:10.37,2013-12-28 05:50:00,
2013-12-28 00:55:00,27.1,24.3,30.40,WNW,283,1.2,1.2,89,0.00,CLR,,0.00,WeatherDisplay:10.37,2013-12-28 05:55:00,
2013-12-28 01:00:00,27.2,24.4,30.39,WNW,283,0.0,0.0,89,0.00,CLR,,0.00,WeatherDisplay:10.37,2013-12-28 06:00:00,
2013-12-28 01:05:00,27.2,24.4,30.39,WNW,283,0.0,0.0,89,0.00,CLR,,0.00,WeatherDisplay:10.37,2013-12-28 06:05:00,
2013-12-28 01:10:00,27.2,24.4,30.39,WNW,283,0.0,0.0,89,0.00,CLR,,0.00,WeatherDisplay:10.37,2013-12-28 06:10:00,
2013-12-28 01:15:00,27.2,24.4,30.39,WNW,283,0.0,0.0,89,0.00,CLR,,0.00,WeatherDisplay:10.37,2013-12-28 06:15:00,
2013-12-28 01:20:00,27.2,24.4,30.38,WNW,283,0.0,0.0,89,0.00,CLR,,0.00,WeatherDisplay:10.37,2013-12-28 06:20:00,
2013-12-28 01:25:00,27.2,24.4,30.38,WNW,283,0.0,0.0,89,0.00,CLR,,0.00,WeatherDisplay:10.37,2013-12-28 06:25:00,
2013-12-28 01:30:00,27.2,24.4,30.39,WNW,283,0.0,0.0,89,0.00,CLR,,0.00,WeatherDisplay:10.37,2013-12-28 06:30:00,
2013-12-28 01:35:00,27.2,24.4,30.39,WNW,283,0.0,0.0,89,0.00,CLR,,0.00,WeatherDisplay:10.37,2013-12-28 06:35:00,
2013-12-28 01:40:00,27.1,24.3,30.39,WNW,283,0.0,0.0,89,0.00,CLR,,0.00,WeatherDisplay:10.37,2013-12-28 06:40:00,
2013-12-28 01:45:00,27.1,24.3,30.39,WNW,283,0.0,0.0,89,0.00,CLR,,0.00,WeatherDisplay:10.37,2013-12-28 06:45:00,
2013-12-28 01:50:00,27.0,24.2,30.39,WNW,283,0.0,0.0,89,0.00,CLR,,0.00,WeatherDisplay:10.37,2013-12-28 06:50:00,
2013-12-28 01:55:00,26.9,24.1,30.39,WNW,283,0.0,0.0,89,0.00,CLR,,0.00,WeatherDisplay:10.37,2013-12-28 06:55:00,
2013-12-28 02:00:00,26.8,24.0,30.39,WNW,283,0.0,0.0,89,0.00,CLR,,0.00,WeatherDisplay:10.37,2013-12-28 07:00:00,
2013-12-28 02:05:00,26.7,23.9,30.39,WNW,283,0.0,0.0,89,0.00,CLR,,0.00,WeatherDisplay:10.37,2013-12-28 07:05:00,
2013-12-28 02:10:00,26.6,23.8,30.39,WNW,283,0.0,0.0,89,0.00,CLR,,0.00,WeatherDisplay:10.37,2013-12-28 07:10:00,
2013-12-28 02:15:00,26.4,23.6,30.39,WNW,283,0.0,0.0,89,0.00,CLR,,0.00,WeatherDisplay:10.37,2013-12-28 07:15:00,
2013-12-28 02:20:00,26.3,23.5,30.39,WNW,283,0.0,0.0,89,0.00,CLR,,0.00,WeatherDisplay:10.37,2013-12-28 07:20:00,
2013-12-28 02:25:00,26.3,23.5,30.39,WNW,283,0.0,0.0,89,0.00,CLR,,0.00,WeatherDisplay:10.37,2013-12-28 07:25:00,
2013-12-28 02:30:00,26.3,23.5,30.39,WNW,283,0.0,0.0,89,0.00,CLR,,0.00,WeatherDisplay:10.37,2013-12-28 07:30:00,
2013-12-28 02:35:00,26.2,23.4,30.39,WNW,283,0.0,0.0,89,0.00,CLR,,0.00,WeatherDisplay:10.37,2013-12-28 07:35:00,
2013-12-28 02:40:00,26.2,23.4,30.39,WNW,283,0.0,0.0,89,0.00,CLR,,0.00,WeatherDisplay:10.37,2013-12-28 07:40:00,
2013-12-28 02:45:00,26.1,23.3,30.39,WNW,283,0.0,0.0,89,0.00,CLR,,0.00,WeatherDisplay:10.37,2013-12-28 07:45:00,
2013-12-28 02:50:00,26.0,23.2,30.40,WNW,283,0.0,0.0,89,0.00,CLR,,0.00,WeatherDisplay:10.37,2013-12-28 07:50:00,
2013-12-28 02:55:00,26.0,23.2,30.39,WNW,283,0.0,0.0,89,0.00,CLR,,0.00,WeatherDisplay:10.37,2013-12-28 07:55:00,
2013-12-28 03:00:00,25.9,23.1,30.39,WNW,283,0.0,0.0,89,0.00,CLR,,0.00,WeatherDisplay:10.37,2013-12-28 08:00:00,
2013-12-28 03:05:00,25.8,23.0,30.39,WNW,283,0.0,0.0,89,0.00,CLR,,0.00,WeatherDisplay:10.37,2013-12-28 08:05:00,
2013-12-28 03:10:00,25.7,22.9,30.39,WNW,283,0.0,0.0,89,0.00,CLR,,0.00,WeatherDisplay:10.37,2013-12-28 08:10:00,
2013-12-28 03:15:00,25.7,22.9,30.39,WNW,283,0.0,0.0,89,0.00,CLR,,0.00,WeatherDisplay:10.37,2013-12-28 08:15:00,
2013-12-28 03:20:00,25.6,22.8,30.39,WNW,283,0.0,0.0,89,0.00,CLR,,0.00,WeatherDisplay:10.37,2013-12-28 08:20:00,
2013-12-28 03:25:00,25.5,22.7,30.39,WNW,283,0.0,0.0,89,0.00,CLR,,0.00,WeatherDisplay:10.37,2013-12-28 08:25:00,
2013-12-28 03:30:00,25.4,22.6,30.39,WNW,283,0.0,0.0,89,0.00,CLR,,0.00,WeatherDisplay:10.37,2013-12-28 08:30:00,
2013-12-28 03:35:00,25.4,22.6,30.39,WNW,283,0.0,0.0,89,0.00,CLR,,0.00,WeatherDisplay:10.37,2013-12-28 08:35:00,
2013-12-28 03:40:00,25.3,22.5,30.39,WNW,283,0.0,0.0,89,0.00,CLR,,0.00,WeatherDisplay:10.37,2013-12-28 08:40:00,
2013-12-28 03:45:00,25.2,22.4,30.38,WNW,283,0.0,0.0,89,0.00,CLR,,0.00,WeatherDisplay:10.37,2013-12-28 08:45:00,
2013-12-28 03:50:00,25.2,22.4,30.39,WNW,283,0.0,0.0,89,0.00,CLR,,0.00,WeatherDisplay:10.37,2013-12-28 08:50:00,
2013-12-28 03:55:00,25.1,22.3,30.38,WNW,283,0.0,0.0,89,0.00,CLR,,0.00,WeatherDisplay:10.37,2013-12-28 08:55:00,
2013-12-28 04:00:00,25.1,22.3,30.38,WNW,283,0.0,0.0,89,0.00,CLR,,0.00,WeatherDisplay:10.37,2013-12-28 09:00:00,
2013-12-28 04:05:00,25.0,22.2,30.38,WNW,283,0.0,0.0,89,0.00,CLR,,0.00,WeatherDisplay:10.37,2013-12-28 09:05:00,
2013-12-28 04:10:00,25.0,22.2,30.38,WNW,283,0.0,0.0,89,0.00,CLR,,0.00,WeatherDisplay:10.37,2013-12-28 09:10:00,
2013-12-28 04:15:00,24.9,22.6,30.38,WNW,283,0.0,0.0,91,0.00,CLR,,0.00,WeatherDisplay:10.37,2013-12-28 09:15:00,
2013-12-28 04:20:00,24.9,22.6,30.38,WNW,283,0.0,0.0,91,0.00,CLR,,0.00,WeatherDisplay:10.37,2013-12-28 09:20:00,
2013-12-28 04:25:00,24.8,22.0,30.38,WNW,283,0.0,0.0,89,0.00,CLR,,0.00,WeatherDisplay:10.37,2013-12-28 09:25:00,
2013-12-28 04:30:00,24.7,21.9,30.37,WNW,283,0.0,0.0,89,0.00,CLR,,0.00,WeatherDisplay:10.37,2013-12-28 09:30:00,
2013-12-28 04:35:00,24.7,21.9,30.37,WNW,283,0.0,0.0,89,0.00,CLR,,0.00,WeatherDisplay:10.37,2013-12-28 09:35:00,
2013-12-28 04:40:00,24.6,21.8,30.38,WNW,283,0.0,0.0,89,0.00,CLR,,0.00,WeatherDisplay:10.37,2013-12-28 09:40:00,
2013-12-28 04:45:00,24.6,21.8,30.38,WNW,283,0.0,0.0,89,0.00,CLR,,0.00,WeatherDisplay:10.37,2013-12-28 09:45:00,
2013-12-28 04:50:00,24.5,21.7,30.38,WNW,283,0.0,0.0,89,0.00,CLR,,0.00,WeatherDisplay:10.37,2013-12-28 09:50:00,
2013-12-28 04:55:00,24.5,22.2,30.38,WNW,283,0.0,0.0,91,0.00,CLR,,0.00,WeatherDisplay:10.37,2013-12-28 09:55:00,
2013-12-28 05:00:00,24.5,22.2,30.38,WNW,283,0.0,0.0,91,0.00,CLR,,0.00,WeatherDisplay:10.37,2013-12-28 10:00:00,
2013-12-28 05:05:00,24.4,22.2,30.38,WNW,283,0.0,0.0,91,0.00,CLR,,0.00,WeatherDisplay:10.37,2013-12-28 10:05:00,
2013-12-28 05:10:00,24.4,22.2,30.38,WNW,283,0.0,0.0,91,0.00,CLR,,0.00,WeatherDisplay:10.37,2013-12-28 10:10:00,
2013-12-28 05:15:00,24.4,22.2,30.38,WNW,283,0.0,0.0,91,0.00,CLR,,0.00,WeatherDisplay:10.37,2013-12-28 10:15:00,
2013-12-28 05:20:00,24.4,22.2,30.38,WNW,283,0.0,0.0,91,0.00,CLR,,0.00,WeatherDisplay:10.37,2013-12-28 10:20:00,
2013-12-28 05:25:00,24.4,22.2,30.38,WNW,283,0.0,0.0,91,0.00,CLR,,0.00,WeatherDisplay:10.37,2013-12-28 10:25:00,
2013-12-28 05:30:00,24.4,22.2,30.38,WNW,283,0.0,0.0,91,0.00,CLR,,0.00,WeatherDisplay:10.37,2013-12-28 10:30:00,
2013-12-28 05:35:00,24.4,22.2,30.38,WNW,283,0.0,0.0,91,0.00,CLR,,0.00,WeatherDisplay:10.37,2013-12-28 10:35:00,
2013-12-28 05:40:00,24.4,22.2,30.39,WNW,283,0.0,0.0,91,0.00,CLR,,0.00,WeatherDisplay:10.37,2013-12-28 10:40:00,
2013-12-28 05:45:00,24.3,22.1,30.39,WNW,283,0.0,0.0,91,0.00,CLR,,0.00,WeatherDisplay:10.37,2013-12-28 10:45:00,
2013-12-28 05:50:00,24.3,22.1,30.39,WNW,283,0.0,0.0,91,0.00,CLR,,0.00,WeatherDisplay:10.37,2013-12-28 10:50:00,
2013-12-28 05:55:00,24.3,22.1,30.39,WNW,283,0.0,0.0,91,0.00,CLR,,0.00,WeatherDisplay:10.37,2013-12-28 10:55:00,
2013-12-28 06:00:00,24.2,22.0,30.39,WNW,283,0.0,0.0,91,0.00,CLR,,0.00,WeatherDisplay:10.37,2013-12-28 11:00:00,
2013-12-28 06:02:00,24.2,22.0,30.39,WNW,283,0.0,0.0,91,0.00,CLR,,0.00,WeatherDisplay:10.37,2013-12-28 11:02:00,
2013-12-28 06:07:00,24.1,21.9,30.40,WNW,283,0.0,0.0,91,0.00,CLR,,0.00,WeatherDisplay:10.37,2013-12-28 11:07:00,
2013-12-28 06:12:00,24.0,21.8,30.40,WNW,283,0.0,0.0,91,0.00,CLR,,0.00,WeatherDisplay:10.37,2013-12-28 11:12:00,
2013-12-28 06:17:00,24.0,21.8,30.40,WNW,283,0.0,0.0,91,0.00,CLR,,0.00,WeatherDisplay:10.37,2013-12-28 11:17:00,
2013-12-28 06:22:00,23.9,21.7,30.40,WNW,283,0.0,0.0,91,0.00,CLR,,0.00,WeatherDisplay:10.37,2013-12-28 11:22:00,
2013-12-28 06:27:00,23.8,21.6,30.40,WNW,283,0.0,0.0,91,0.00,CLR,,0.00,WeatherDisplay:10.37,2013-12-28 11:27:00,
2013-12-28 06:32:00,23.8,21.6,30.40,WNW,283,0.0,0.0,91,0.00,CLR,,0.00,WeatherDisplay:10.37,2013-12-28 11:32:00,
2013-12-28 06:37:00,23.7,21.5,30.40,WNW,283,0.0,0.0,91,0.00,CLR,,0.00,WeatherDisplay:10.37,2013-12-28 11:37:00,
2013-12-28 06:42:00,23.7,21.5,30.40,WNW,283,0.0,0.0,91,0.00,CLR,,0.00,WeatherDisplay:10.37,2013-12-28 11:42:00,
2013-12-28 06:47:00,23.6,21.4,30.41,WNW,283,0.0,0.0,91,0.00,CLR,,0.00,WeatherDisplay:10.37,2013-12-28 11:47:00,
2013-12-28 06:52:00,23.6,21.4,30.41,WNW,283,0.0,0.0,91,0.00,CLR,,0.00,WeatherDisplay:10.37,2013-12-28 11:52:00,
2013-12-28 06:57:00,23.5,21.3,30.41,WNW,283,0.0,0.0,91,0.00,CLR,,0.00,WeatherDisplay:10.37,2013-12-28 11:57:00,
2013-12-28 07:02:00,23.5,21.3,30.41,WNW,283,0.0,0.0,91,0.00,CLR,,0.00,WeatherDisplay:10.37,2013-12-28 12:02:00,
2013-12-28 07:07:00,23.5,21.3,30.41,WNW,283,0.0,0.0,91,0.00,CLR,,0.00,WeatherDisplay:10.37,2013-12-28 12:07:00,
2013-12-28 07:12:00,23.5,21.3,30.42,WNW,283,0.0,0.0,91,0.00,CLR,,0.00,WeatherDisplay:10.37,2013-12-28 12:12:00,
2013-12-28 07:17:00,23.5,21.3,30.41,WNW,283,0.0,0.0,91,0.00,CLR,,0.00,WeatherDisplay:10.37,2013-12-28 12:17:00,
2013-12-28 07:22:00,23.4,21.2,30.42,North,5,1.2,0.0,91,0.00,CLR,,0.00,WeatherDisplay:10.37,2013-12-28 12:22:00,
2013-12-28 07:27:00,23.4,21.2,30.42,North,360,0.0,0.0,91,0.00,CLR,,0.00,WeatherDisplay:10.37,2013-12-28 12:27:00,
2013-12-28 07:32:00,23.4,21.2,30.42,North,360,0.0,0.0,91,0.00,CLR,,0.00,WeatherDisplay:10.37,2013-12-28 12:32:00,
2013-12-28 07:37:00,23.4,21.2,30.42,North,5,0.0,0.0,91,0.00,CLR,,0.00,WeatherDisplay:10.37,2013-12-28 12:37:00,
2013-12-28 07:42:00,23.4,21.2,30.41,North,360,0.0,0.0,91,0.00,CLR,,0.00,WeatherDisplay:10.37,2013-12-28 12:42:00,
2013-12-28 07:47:00,23.4,21.4,30.41,North,5,0.0,0.3,92,0.00,CLR,,0.00,WeatherDisplay:10.37,2013-12-28 12:47:00,
2013-12-28 07:52:00,23.5,21.5,30.41,North,360,0.0,0.0,92,0.00,CLR,,0.00,WeatherDisplay:10.37,2013-12-28 12:52:00,
2013-12-28 07:57:00,23.6,21.6,30.41,North,5,0.0,0.0,92,0.00,CLR,,0.00,WeatherDisplay:10.37,2013-12-28 12:57:00,
2013-12-28 08:02:00,23.8,21.8,30.41,North,360,0.0,0.0,92,0.00,CLR,,0.00,WeatherDisplay:10.37,2013-12-28 13:02:00,
2013-12-28 08:07:00,24.1,22.1,30.41,North,5,0.0,0.0,92,0.00,CLR,,0.00,WeatherDisplay:10.37,2013-12-28 13:07:00,
2013-12-28 08:12:00,24.7,23.0,30.40,North,5,0.0,0.0,93,0.00,CLR,,0.00,WeatherDisplay:10.37,2013-12-28 13:12:00,
2013-12-28 08:17:00,25.3,23.6,30.40,North,5,0.0,0.0,93,0.00,CLR,,0.00,WeatherDisplay:10.37,2013-12-28 13:17:00,
2013-12-28 08:22:00,25.8,24.1,30.40,North,5,0.0,0.0,93,0.00,CLR,,0.00,WeatherDisplay:10.37,2013-12-28 13:22:00,
2013-12-28 08:27:00,26.3,24.6,30.40,North,5,0.0,0.0,93,0.00,CLR,,0.00,WeatherDisplay:10.37,2013-12-28 13:27:00,
2013-12-28 08:32:00,27.0,25.2,30.40,North,360,0.0,0.0,93,0.00,CLR,,0.00,WeatherDisplay:10.37,2013-12-28 13:32:00,
2013-12-28 08:37:00,27.6,25.8,30.40,North,5,0.0,0.0,93,0.00,CLR,,0.00,WeatherDisplay:10.37,2013-12-28 13:37:00,
2013-12-28 08:42:00,28.2,26.7,30.40,North,5,1.2,0.0,94,0.00,CLR,,0.00,WeatherDisplay:10.37,2013-12-28 13:42:00,
2013-12-28 08:47:00,28.9,27.4,30.40,North,360,1.2,0.0,94,0.00,CLR,,0.00,WeatherDisplay:10.37,2013-12-28 13:47:00,
2013-12-28 08:52:00,29.7,28.2,30.40,North,5,2.3,2.3,94,0.00,CLR,,0.00,WeatherDisplay:10.37,2013-12-28 13:52:00,
2013-12-28 08:57:00,30.4,28.9,30.41,North,360,0.0,0.0,94,0.00,CLR,,0.00,WeatherDisplay:10.37,2013-12-28 13:57:00,
2013-12-28 09:02:00,31.2,29.7,30.41,North,5,2.3,2.3,94,0.00,CLR,,0.00,WeatherDisplay:10.37,2013-12-28 14:02:00,
2013-12-28 09:07:00,32.1,30.6,30.41,North,360,3.5,3.5,94,0.00,CLR,,0.00,WeatherDisplay:10.37,2013-12-28 14:07:00,
2013-12-28 09:12:00,32.9,31.4,30.41,North,5,2.3,2.3,94,0.00,CLR,,0.00,WeatherDisplay:10.37,2013-12-28 14:12:00,
2013-12-28 09:17:00,33.9,32.6,30.41,North,360,2.3,2.5,95,0.00,CLR,,0.00,WeatherDisplay:10.37,2013-12-28 14:17:00,
2013-12-28 09:22:00,34.5,33.2,30.41,North,5,3.5,3.5,95,0.00,CLR,,0.00,WeatherDisplay:10.37,2013-12-28 14:22:00,
2013-12-28 09:27:00,35.2,33.6,30.41,North,5,3.5,3.5,94,0.00,CLR,,0.00,WeatherDisplay:10.37,2013-12-28 14:27:00,
2013-12-28 09:32:00,35.8,34.2,30.40,North,360,2.3,2.3,94,0.00,CLR,,0.00,WeatherDisplay:10.37,2013-12-28 14:32:00,
2013-12-28 09:37:00,36.4,34.8,30.40,North,5,0.0,0.0,94,0.00,CLR,,0.00,WeatherDisplay:10.37,2013-12-28 14:37:00,
2013-12-28 09:42:00,37.1,35.5,30.40,North,5,0.0,0.0,94,0.00,CLR,,0.00,WeatherDisplay:10.37,2013-12-28 14:42:00,
2013-12-28 09:47:00,37.7,35.9,30.40,North,360,0.0,0.0,93,0.00,CLR,,0.00,WeatherDisplay:10.37,2013-12-28 14:47:00,
2013-12-28 09:52:00,38.2,36.1,30.40,North,5,0.0,0.0,92,0.00,CLR,,0.00,WeatherDisplay:10.37,2013-12-28 14:52:00,
2013-12-28 09:57:00,38.7,36.3,30.40,North,5,0.0,0.0,91,0.00,CLR,,0.00,WeatherDisplay:10.37,2013-12-28 14:57:00,
2013-12-28 10:02:00,39.2,36.8,30.40,North,5,0.0,0.0,91,0.00,CLR,,0.00,WeatherDisplay:10.37,2013-12-28 15:02:00,
2013-12-28 10:07:00,39.6,36.3,30.40,North,360,0.0,0.0,88,0.00,CLR,,0.00,WeatherDisplay:10.37,2013-12-28 15:07:00,
2013-12-28 10:12:00,40.1,36.2,30.40,North,5,0.0,0.0,86,0.00,CLR,,0.00,WeatherDisplay:10.37,2013-12-28 15:12:00,
2013-12-28 10:17:00,40.8,36.3,30.40,North,5,3.5,3.5,84,0.00,CLR,,0.00,WeatherDisplay:10.37,2013-12-28 15:17:00,
2013-12-28 10:22:00,41.6,35.6,30.40,North,5,3.5,3.5,79,0.00,CLR,,0.00,WeatherDisplay:10.37,2013-12-28 15:22:00,
2013-12-28 10:27:00,42.3,34.9,30.39,North,5,4.6,4.6,75,0.00,CLR,,0.00,WeatherDisplay:10.37,2013-12-28 15:27:00,
2013-12-28 10:32:00,42.3,34.9,30.39,North,5,4.6,4.6,75,0.00,CLR,,0.00,WeatherDisplay:10.37,2013-12-28 15:32:00,
2013-12-28 10:37:00,43.4,32.8,30.39,SW,219,6.9,6.9,66,0.00,CLR,,0.00,WeatherDisplay:10.37,2013-12-28 15:37:00,
2013-12-28 10:42:00,44.1,32.7,30.39,SSW,209,5.8,5.8,64,0.00,CLR,,0.00,WeatherDisplay:10.37,2013-12-28 15:42:00,
2013-12-28 10:47:00,44.8,32.6,30.39,SSW,209,6.0,6.0,62,0.00,CLR,,0.00,WeatherDisplay:10.37,2013-12-28 15:47:00,
2013-12-28 10:52:00,45.5,32.0,30.39,SW,233,4.6,4.6,59,0.00,CLR,,0.00,WeatherDisplay:10.37,2013-12-28 15:52:00,
2013-12-28 10:57:00,46.1,31.7,30.39,SW,233,3.5,3.6,57,0.00,CLR,,0.00,WeatherDisplay:10.37,2013-12-28 15:57:00,
2013-12-28 11:02:00,47.0,31.7,30.39,SW,232,4.6,4.6,55,0.00,CLR,,0.00,WeatherDisplay:10.37,2013-12-28 16:02:00,
2013-12-28 11:07:00,47.8,32.4,30.39,SW,227,5.0,5.0,55,0.00,CLR,,0.00,WeatherDisplay:10.37,2013-12-28 16:07:00,
2013-12-28 11:12:00,48.9,32.0,30.39,SW,223,5.8,5.8,52,0.00,CLR,,0.00,WeatherDisplay:10.37,2013-12-28 16:12:00,
2013-12-28 11:17:00,49.8,32.4,30.39,SSW,210,6.9,6.9,51,0.00,CLR,,0.00,WeatherDisplay:10.37,2013-12-28 16:17:00,
2013-12-28 11:22:00,50.5,32.0,30.39,SW,230,3.5,3.5,49,0.00,CLR,,0.00,WeatherDisplay:10.37,2013-12-28 16:22:00,
2013-12-28 11:27:00,51.3,32.8,30.38,SSW,209,8.0,8.0,49,0.00,CLR,,0.00,WeatherDisplay:10.37,2013-12-28 16:27:00,
2013-12-28 11:32:00,52.0,31.3,30.38,SSW,206,6.9,6.9,45,0.00,CLR,,0.00,WeatherDisplay:10.37,2013-12-28 16:32:00,
2013-12-28 11:37:00,52.6,30.7,30.37,SW,222,9.2,9.2,43,0.00,CLR,,0.00,WeatherDisplay:10.37,2013-12-28 16:37:00,
2013-12-28 11:42:00,52.9,30.4,30.37,SSW,207,5.8,5.8,42,0.00,CLR,,0.00,WeatherDisplay:10.37,2013-12-28 16:42:00,
2013-12-28 11:47:00,53.6,29.8,30.37,SSW,196,11.5,11.5,40,0.00,CLR,,0.00,WeatherDisplay:10.37,2013-12-28 16:47:00,
2013-12-28 11:52:00,53.9,30.1,30.37,West,267,9.2,9.2,40,0.00,CLR,,0.00,WeatherDisplay:10.37,2013-12-28 16:52:00,
2013-12-28 11:57:00,54.1,30.3,30.36,WSW,242,3.5,3.5,40,0.00,CLR,,0.00,WeatherDisplay:10.37,2013-12-28 16:57:00,
2013-12-28 12:02:00,54.3,30.5,30.36,SSW,209,4.6,4.6,40,0.00,CLR,,0.00,WeatherDisplay:10.37,2013-12-28 17:02:00,
2013-12-28 12:07:00,54.5,30.0,30.35,South,184,5.8,5.8,39,0.00,CLR,,0.00,WeatherDisplay:10.37,2013-12-28 17:07:00,
2013-12-28 12:12:00,54.4,29.9,30.34,SSW,198,5.8,5.8,39,0.00,CLR,,0.00,WeatherDisplay:10.37,2013-12-28 17:12:00,
2013-12-28 12:17:00,54.3,29.8,30.34,SSW,193,4.6,4.6,39,0.00,CLR,,0.00,WeatherDisplay:10.37,2013-12-28 17:17:00,
2013-12-28 12:22:00,54.2,29.1,30.34,SW,227,6.9,6.9,38,0.00,CLR,,0.00,WeatherDisplay:10.37,2013-12-28 17:22:00,
2013-12-28 12:27:00,54.2,29.8,30.33,SW,221,5.8,5.8,39,0.00,CLR,,0.00,WeatherDisplay:10.37,2013-12-28 17:27:00,
2013-12-28 12:32:00,54.4,29.9,30.33,SW,221,3.5,3.5,39,0.00,CLR,,0.00,WeatherDisplay:10.37,2013-12-28 17:32:00,
2013-12-28 12:37:00,54.9,30.4,30.32,SW,221,1.2,1.2,39,0.00,CLR,,0.00,WeatherDisplay:10.37,2013-12-28 17:37:00,
2013-12-28 12:42:00,55.5,30.3,30.32,SW,218,5.8,5.8,38,0.00,CLR,,0.00,WeatherDisplay:10.37,2013-12-28 17:42:00,
2013-12-28 12:47:00,56.1,30.8,30.32,SW,218,5.8,5.8,38,0.00,CLR,,0.00,WeatherDisplay:10.37,2013-12-28 17:47:00,
2013-12-28 12:52:00,56.3,30.3,30.31,SSE,165,4.6,4.6,37,0.00,CLR,,0.00,WeatherDisplay:10.37,2013-12-28 17:52:00,
2013-12-28 12:57:00,56.8,31.4,30.31,South,184,3.5,3.9,38,0.00,CLR,,0.00,WeatherDisplay:10.37,2013-12-28 17:57:00,
2013-12-28 13:02:00,57.1,31.0,30.31,WSW,240,3.5,4.3,37,0.00,CLR,,0.00,WeatherDisplay:10.37,2013-12-28 18:02:00,
2013-12-28 13:07:00,57.2,29.8,30.31,SW,223,4.6,4.6,35,0.00,CLR,,0.00,WeatherDisplay:10.37,2013-12-28 18:07:00,
2013-12-28 13:12:00,57.7,30.2,30.30,SE,142,5.8,5.8,35,0.00,CLR,,0.00,WeatherDisplay:10.37,2013-12-28 18:12:00,
2013-12-28 13:17:00,57.8,29.6,30.29,SSE,155,2.3,0.0,34,0.00,CLR,,0.00,WeatherDisplay:10.37,2013-12-28 18:17:00,
2013-12-28 13:22:00,58.0,30.5,30.29,SSE,155,3.5,3.5,35,0.00,CLR,,0.00,WeatherDisplay:10.37,2013-12-28 18:22:00,
2013-12-28 13:27:00,58.6,30.3,30.29,West,271,3.5,3.5,34,0.00,CLR,,0.00,WeatherDisplay:10.37,2013-12-28 18:27:00,
2013-12-28 13:32:00,59.1,30.0,30.29,SW,219,5.8,5.8,33,0.00,CLR,,0.00,WeatherDisplay:10.37,2013-12-28 18:32:00,
2013-12-28 13:37:00,59.3,28.6,30.29,WSW,240,6.9,6.9,31,0.00,CLR,,0.00,WeatherDisplay:10.37,2013-12-28 18:37:00,
2013-12-28 13:42:00,59.6,28.9,30.29,SSW,202,4.6,4.6,31,0.00,CLR,,0.00,WeatherDisplay:10.37,2013-12-28 18:42:00,
2013-12-28 16:39:00,54.9,36.1,30.27,SW,232,0.0,0.0,49,0.00,CLR,,0.00,WeatherDisplay:10.37,2013-12-28 21:39:00,
2013-12-28 16:44:00,53.7,36.0,30.27,SW,232,0.0,0.0,51,0.00,CLR,,0.00,WeatherDisplay:10.37,2013-12-28 21:44:00,
2013-12-28 16:49:00,53.0,36.8,30.27,SW,232,0.0,0.0,54,0.00,CLR,,0.00,WeatherDisplay:10.37,2013-12-28 21:49:00,
2013-12-28 16:54:00,52.5,36.8,30.27,SW,232,0.0,0.0,55,0.00,CLR,,0.00,WeatherDisplay:10.37,2013-12-28 21:54:00,
2013-12-28 16:59:00,51.9,36.7,30.27,SW,232,0.0,0.0,56,0.00,CLR,,0.00,WeatherDisplay:10.37,2013-12-28 21:59:00,
2013-12-28 17:04:00,51.0,36.3,30.27,SW,232,0.0,0.0,57,0.00,CLR,,0.00,WeatherDisplay:10.37,2013-12-28 22:04:00,
2013-12-28 17:09:00,50.0,35.8,30.26,SW,232,0.0,0.0,58,0.00,CLR,,0.00,WeatherDisplay:10.37,2013-12-28 22:09:00,
2013-12-28 17:14:00,49.0,35.3,30.26,SW,232,0.0,0.0,59,0.00,CLR,,0.00,WeatherDisplay:10.37,2013-12-28 22:14:00,
2013-12-28 17:19:00,48.3,35.0,30.26,SW,232,0.0,0.0,60,0.00,CLR,,0.00,WeatherDisplay:10.37,2013-12-28 22:19:00,
2013-12-28 17:24:00,48.0,36.0,30.27,SW,232,0.0,0.0,63,0.00,CLR,,0.00,WeatherDisplay:10.37,2013-12-28 22:24:00,
2013-12-28 17:29:00,47.8,36.2,30.27,SW,232,0.0,0.0,64,0.00,CLR,,0.00,WeatherDisplay:10.37,2013-12-28 22:29:00,
2013-12-28 17:34:00,47.6,36.4,30.27,SW,232,0.0,0.0,65,0.00,CLR,,0.00,WeatherDisplay:10.37,2013-12-28 22:34:00,
2013-12-28 17:39:00,47.3,36.1,30.27,SW,232,0.0,0.0,65,0.00,CLR,,0.00,WeatherDisplay:10.37,2013-12-28 22:39:00,
2013-12-28 17:44:00,46.9,35.7,30.27,SW,232,0.0,0.0,65,0.00,CLR,,0.00,WeatherDisplay:10.37,2013-12-28 22:44:00,
2013-12-28 17:49:00,46.6,35.8,30.26,SW,232,0.0,0.0,66,0.00,CLR,,0.00,WeatherDisplay:10.37,2013-12-28 22:49:00,
2013-12-28 17:54:00,46.5,35.7,30.26,SW,232,0.0,0.0,66,0.00,CLR,,0.00,WeatherDisplay:10.37,2013-12-28 22:54:00,
2013-12-28 17:59:00,46.4,36.0,30.26,SW,232,0.0,0.0,67,0.00,CLR,,0.00,WeatherDisplay:10.37,2013-12-28 22:59:00,
2013-12-28 18:04:00,46.2,36.2,30.27,SW,232,0.0,0.0,68,0.00,CLR,,0.00,WeatherDisplay:10.37,2013-12-28 23:04:00,
2013-12-28 18:09:00,46.1,35.7,30.27,SW,232,0.0,0.0,67,0.00,CLR,,0.00,WeatherDisplay:10.37,2013-12-28 23:09:00,
2013-12-28 18:14:00,45.8,35.5,30.27,SW,232,0.0,0.0,67,0.00,CLR,,0.00,WeatherDisplay:10.37,2013-12-28 23:14:00,
2013-12-28 18:19:00,45.6,35.6,30.27,SW,232,0.0,0.0,68,0.00,CLR,,0.00,WeatherDisplay:10.37,2013-12-28 23:19:00,
2013-12-28 18:24:00,45.4,35.5,30.27,SW,232,0.0,0.0,68,0.00,CLR,,0.00,WeatherDisplay:10.37,2013-12-28 23:24:00,
2013-12-28 18:29:00,45.1,35.9,30.27,SW,232,0.0,0.0,70,0.00,CLR,,0.00,WeatherDisplay:10.37,2013-12-28 23:29:00,
2013-12-28 18:34:00,45.0,36.2,30.27,SW,232,0.0,0.0,71,0.00,CLR,,0.00,WeatherDisplay:10.37,2013-12-28 23:34:00,
2013-12-28 18:39:00,44.7,36.2,30.27,SW,232,0.0,0.0,72,0.00,CLR,,0.00,WeatherDisplay:10.37,2013-12-28 23:39:00,
2013-12-28 18:44:00,44.6,36.5,30.27,SW,232,0.0,0.0,73,0.00,CLR,,0.00,WeatherDisplay:10.37,2013-12-28 23:44:00,
2013-12-28 18:49:00,44.5,36.4,30.27,SW,232,0.0,0.0,73,0.00,CLR,,0.00,WeatherDisplay:10.37,2013-12-28 23:49:00,
2013-12-28 18:54:00,44.4,37.0,30.27,SW,232,0.0,0.0,75,0.00,CLR,,0.00,WeatherDisplay:10.37,2013-12-28 23:54:00,
2013-12-28 18:59:00,44.3,36.9,30.27,SW,232,0.0,0.0,75,0.00,CLR,,0.00,WeatherDisplay:10.37,2013-12-28 23:59:00,
2013-12-28 19:04:00,44.2,37.1,30.27,SW,232,0.0,0.0,76,0.00,CLR,,0.00,WeatherDisplay:10.37,2013-12-29 00:04:00,
2013-12-28 19:09:00,44.2,37.1,30.27,SW,232,0.0,0.0,76,0.00,CLR,,0.00,WeatherDisplay:10.37,2013-12-29 00:09:00,
2013-12-28 19:14:00,44.1,37.0,30.26,SW,232,0.0,0.0,76,0.00,CLR,,0.00,WeatherDisplay:10.37,2013-12-29 00:14:00,
2013-12-28 19:19:00,44.0,36.9,30.26,SW,232,0.0,0.0,76,0.00,CLR,,0.00,WeatherDisplay:10.37,2013-12-29 00:19:00,
2013-12-28 19:24:00,44.0,36.9,30.26,SW,232,0.0,0.0,76,0.00,CLR,,0.00,WeatherDisplay:10.37,2013-12-29 00:24:00,
2013-12-28 19:29:00,44.0,36.9,30.26,SW,232,0.0,0.0,76,0.00,CLR,,0.00,WeatherDisplay:10.37,2013-12-29 00:29:00,
2013-12-28 19:34:00,44.0,36.9,30.26,SW,232,0.0,0.0,76,0.00,CLR,,0.00,WeatherDisplay:10.37,2013-12-29 00:34:00,
2013-12-28 19:39:00,44.0,36.9,30.25,SW,232,1.2,0.0,76,0.00,CLR,,0.00,WeatherDisplay:10.37,2013-12-29 00:39:00,
2013-12-28 19:44:00,44.0,37.3,30.26,SW,232,0.0,0.0,77,0.00,CLR,,0.00,WeatherDisplay:10.37,2013-12-29 00:44:00,
2013-12-28 19:53:00,44.0,37.3,30.26,SW,232,0.0,0.0,77,0.00,CLR,,0.00,WeatherDisplay:10.37,2013-12-29 00:53:00,
2013-12-28 19:58:00,44.0,37.3,30.26,SW,232,0.0,0.0,77,0.00,CLR,,0.00,WeatherDisplay:10.37,2013-12-29 00:58:00,
2013-12-28 20:03:00,43.9,37.2,30.26,SW,232,0.0,0.0,77,0.00,CLR,,0.00,WeatherDisplay:10.37,2013-12-29 01:03:00,
2013-12-28 20:08:00,43.9,37.2,30.26,SW,232,0.0,0.0,77,0.00,CLR,,0.00,WeatherDisplay:10.37,2013-12-29 01:08:00,
2013-12-28 20:13:00,43.9,37.5,30.26,SW,232,0.0,0.0,78,0.00,CLR,,0.00,WeatherDisplay:10.37,2013-12-29 01:13:00,
2013-12-28 20:18:00,43.9,37.5,30.26,SW,232,0.0,0.0,78,0.00,CLR,,0.00,WeatherDisplay:10.37,2013-12-29 01:18:00,
2013-12-28 20:23:00,43.8,37.7,30.26,SW,232,0.0,0.0,79,0.00,CLR,,0.00,WeatherDisplay:10.37,2013-12-29 01:23:00,
2013-12-28 20:28:00,43.8,37.7,30.26,SW,232,0.0,0.0,79,0.00,CLR,,0.00,WeatherDisplay:10.37,2013-12-29 01:28:00,
2013-12-28 20:33:00,43.7,37.6,30.25,SW,232,0.0,0.0,79,0.00,CLR,,0.00,WeatherDisplay:10.37,2013-12-29 01:33:00,
2013-12-28 20:38:00,43.7,37.6,30.25,SW,232,0.0,0.0,79,0.00,CLR,,0.00,WeatherDisplay:10.37,2013-12-29 01:38:00,
2013-12-28 20:43:00,43.7,37.3,30.24,SW,232,0.0,0.0,78,0.00,CLR,,0.00,WeatherDisplay:10.37,2013-12-29 01:43:00,
2013-12-28 20:48:00,43.8,37.4,30.24,SW,232,0.0,0.0,78,0.00,CLR,,0.00,WeatherDisplay:10.37,2013-12-29 01:48:00,
2013-12-28 20:53:00,43.8,37.4,30.24,SW,232,0.0,0.0,78,0.00,CLR,,0.00,WeatherDisplay:10.37,2013-12-29 01:53:00,
2013-12-28 20:58:00,43.8,37.4,30.24,SW,232,0.0,0.0,78,0.00,CLR,,0.00,WeatherDisplay:10.37,2013-12-29 01:58:00,
2013-12-28 21:03:00,43.9,37.5,30.23,SW,232,0.0,0.0,78,0.00,CLR,,0.00,WeatherDisplay:10.37,2013-12-29 02:03:00,
2013-12-28 21:08:00,43.9,37.5,30.23,SW,232,0.0,0.0,78,0.00,CLR,,0.00,WeatherDisplay:10.37,2013-12-29 02:08:00,
2013-12-28 21:13:00,43.9,37.5,30.23,SW,232,0.0,0.0,78,0.00,CLR,,0.00,WeatherDisplay:10.37,2013-12-29 02:13:00,
2013-12-28 21:18:00,44.0,37.9,30.22,SW,232,0.0,0.0,79,0.00,CLR,,0.00,WeatherDisplay:10.37,2013-12-29 02:18:00,
2013-12-28 21:23:00,44.0,37.9,30.22,SW,232,0.0,0.0,79,0.00,CLR,,0.00,WeatherDisplay:10.37,2013-12-29 02:23:00,
2013-12-28 21:28:00,44.0,37.9,30.22,SW,232,0.0,0.0,79,0.00,CLR,,0.00,WeatherDisplay:10.37,2013-12-29 02:28:00,
2013-12-28 21:33:00,44.0,37.9,30.22,SW,232,0.0,0.0,79,0.00,CLR,,0.00,WeatherDisplay:10.37,2013-12-29 02:33:00,
2013-12-28 21:38:00,44.1,38.3,30.22,SW,232,0.0,0.0,80,0.00,CLR,,0.00,WeatherDisplay:10.37,2013-12-29 02:38:00,
2013-12-28 21:43:00,44.1,38.6,30.21,SW,232,0.0,0.0,81,0.00,CLR,,0.00,WeatherDisplay:10.37,2013-12-29 02:43:00,
2013-12-28 21:48:00,44.2,38.7,30.20,SW,232,0.0,0.0,81,0.00,CLR,,0.00,WeatherDisplay:10.37,2013-12-29 02:48:00,
2013-12-28 21:53:00,44.1,39.0,30.20,SW,232,0.0,0.0,82,0.00,CLR,,0.00,WeatherDisplay:10.37,2013-12-29 02:53:00,
2013-12-28 21:58:00,44.0,38.9,30.19,SW,232,0.0,0.0,82,0.00,CLR,,0.00,WeatherDisplay:10.37,2013-12-29 02:58:00,
2013-12-28 22:03:00,43.9,38.8,30.20,SW,232,0.0,0.0,82,0.00,CLR,,0.00,WeatherDisplay:10.37,2013-12-29 03:03:00,
2013-12-28 22:08:00,43.9,39.4,30.20,SW,232,0.0,0.0,84,0.00,CLR,,0.00,WeatherDisplay:10.37,2013-12-29 03:08:00,
2013-12-28 22:13:00,43.8,39.3,30.20,SW,232,0.0,0.0,84,0.00,CLR,,0.00,WeatherDisplay:10.37,2013-12-29 03:13:00,
2013-12-28 22:18:00,43.8,39.6,30.20,SW,232,0.0,0.0,85,0.00,CLR,,0.00,WeatherDisplay:10.37,2013-12-29 03:18:00,
2013-12-28 22:23:00,43.7,39.8,30.20,SW,232,0.0,0.0,86,0.00,CLR,,0.00,WeatherDisplay:10.37,2013-12-29 03:23:00,
2013-12-28 22:28:00,43.7,39.8,30.20,SW,232,0.0,0.0,86,0.00,CLR,,0.00,WeatherDisplay:10.37,2013-12-29 03:28:00,
2013-12-28 22:33:00,43.6,39.7,30.20,SW,232,0.0,0.0,86,0.00,CLR,,0.00,WeatherDisplay:10.37,2013-12-29 03:33:00,
2013-12-28 22:38:00,43.5,39.9,30.19,SW,232,0.0,0.0,87,0.00,CLR,,0.00,WeatherDisplay:10.37,2013-12-29 03:38:00,
2013-12-28 22:43:00,43.5,39.9,30.19,SW,232,0.0,0.0,87,0.00,CLR,,0.00,WeatherDisplay:10.37,2013-12-29 03:43:00,
2013-12-28 22:48:00,43.4,39.8,30.19,SW,232,0.0,0.0,87,0.00,CLR,,0.00,WeatherDisplay:10.37,2013-12-29 03:48:00,
2013-12-28 22:53:00,43.4,40.1,30.19,SW,232,0.0,0.0,88,0.00,CLR,,0.00,WeatherDisplay:10.37,2013-12-29 03:53:00,
2013-12-28 22:58:00,43.4,40.1,30.19,SW,232,0.0,0.0,88,0.00,CLR,,0.00,WeatherDisplay:10.37,2013-12-29 03:58:00,
2013-12-28 23:03:00,43.3,40.0,30.19,SW,232,0.0,0.0,88,0.00,CLR,,0.00,WeatherDisplay:10.37,2013-12-29 04:03:00,
2013-12-28 23:08:00,43.3,40.0,30.18,SW,232,0.0,0.0,88,0.00,CLR,,0.00,WeatherDisplay:10.37,2013-12-29 04:08:00,
2013-12-28 23:13:00,43.3,40.3,30.18,SW,232,0.0,0.0,89,0.00,CLR,,0.00,WeatherDisplay:10.37,2013-12-29 04:13:00,
2013-12-28 23:18:00,43.3,40.3,30.19,SW,232,0.0,0.0,89,0.00,CLR,,0.00,WeatherDisplay:10.37,2013-12-29 04:18:00,
2013-12-28 23:23:00,43.2,40.2,30.19,SW,232,0.0,0.0,89,0.00,CLR,,0.00,WeatherDisplay:10.37,2013-12-29 04:23:00,
2013-12-28 23:28:00,43.2,40.2,30.19,SW,232,0.0,0.0,89,0.00,CLR,,0.00,WeatherDisplay:10.37,2013-12-29 04:28:00,
2013-12-28 23:33:00,43.2,40.2,30.19,SW,232,0.0,0.0,89,0.00,CLR,,0.00,WeatherDisplay:10.37,2013-12-29 04:33:00,
2013-12-28 23:38:00,43.1,40.1,30.18,SW,232,0.0,0.0,89,0.00,CLR,,0.00,WeatherDisplay:10.37,2013-12-29 04:38:00,
2013-12-28 23:43:00,43.1,40.1,30.18,SW,232,0.0,0.0,89,0.00,CLR,,0.00,WeatherDisplay:10.37,2013-12-29 04:43:00,
2013-12-28 23:48:00,43.2,40.2,30.17,SW,232,0.0,0.0,89,0.00,CLR,,0.00,WeatherDisplay:10.37,2013-12-29 04:48:00,
2013-12-28 23:53:00,43.2,40.8,30.17,SW,232,0.0,0.0,91,0.00,CLR,,0.00,WeatherDisplay:10.37,2013-12-29 04:53:00,
2013-12-28 23:58:00,43.1,40.7,30.17,SW,232,0.0,0.0,91,0.00,CLR,,0.00,WeatherDisplay:10.37,2013-12-29 04:58:00,